GBAFG EGNT-EGNV

Flight info

Callsign GBAFG
Flight time 0h 11m
Altitude 18000
Route GIRLI
Aircraft TBM9/L-SBDFGM3RWXY/LB1

Departure

Time 2026-04-29 23:06
Airport Newcastle International Airport (EGNT)

Arrival

Time 2026-04-29 23:17
Airport Teesside International Airport (EGNV)
Time Latitude Longitude Altitude Speed Heading
2026-04-29 23:05 54.73718 -1.41739 3486 ft 93 kts 122°
2026-04-29 23:06 54.73481 -1.41116 3487 ft 93 kts 121°
2026-04-29 23:06 54.73010 -1.39858 3486 ft 94 kts 121°
2026-04-29 23:06 54.72664 -1.38931 3514 ft 91 kts 121°
2026-04-29 23:06 54.72322 -1.38010 3500 ft 94 kts 121°
2026-04-29 23:07 54.72086 -1.37373 3485 ft 94 kts 121°
2026-04-29 23:07 54.71737 -1.36425 3484 ft 93 kts 121°
2026-04-29 23:07 54.71271 -1.35666 3491 ft 96 kts 147°
2026-04-29 23:07 54.70689 -1.35094 3487 ft 96 kts 144°
2026-04-29 23:08 54.70092 -1.34502 3325 ft 101 kts 144°
2026-04-29 23:08 54.69479 -1.33899 3131 ft 102 kts 144°
2026-04-29 23:08 54.68855 -1.33303 2923 ft 103 kts 144°
2026-04-29 23:08 54.68237 -1.32719 2780 ft 98 kts 144°
2026-04-29 23:09 54.67666 -1.32190 2765 ft 89 kts 144°
2026-04-29 23:09 54.67108 -1.31670 2778 ft 94 kts 144°
2026-04-29 23:09 54.66525 -1.31122 2782 ft 95 kts 144°
2026-04-29 23:09 54.65949 -1.30586 2778 ft 93 kts 144°
2026-04-29 23:10 54.65366 -1.30175 2737 ft 95 kts 160°
2026-04-29 23:10 54.64645 -1.30273 2573 ft 110 kts 190°
2026-04-29 23:10 54.63959 -1.30955 2440 ft 116 kts 202°
2026-04-29 23:10 54.63244 -1.31383 2346 ft 103 kts 172°
2026-04-29 23:11 54.62548 -1.31492 2298 ft 98 kts 172°
2026-04-29 23:11 54.61871 -1.31570 2203 ft 97 kts 168°
2026-04-29 23:11 54.61216 -1.31569 2195 ft 93 kts 166°
2026-04-29 23:11 54.60589 -1.31561 2252 ft 89 kts 166°
2026-04-29 23:12 54.59991 -1.31544 2324 ft 86 kts 166°
2026-04-29 23:12 54.59393 -1.31550 2371 ft 87 kts 169°
2026-04-29 23:12 54.58762 -1.31608 2372 ft 93 kts 171°
2026-04-29 23:12 54.58133 -1.31694 2430 ft 92 kts 177°
2026-04-29 23:13 54.57557 -1.31630 2381 ft 75 kts 157°
2026-04-29 23:13 54.57058 -1.31527 2211 ft 69 kts 165°
2026-04-29 23:13 54.56594 -1.31893 2010 ft 85 kts 216°
2026-04-29 23:13 54.56254 -1.32771 1846 ft 90 kts 233°
2026-04-29 23:14 54.55909 -1.33692 1726 ft 96 kts 221°
2026-04-29 23:14 54.55428 -1.34514 1565 ft 96 kts 212°
2026-04-29 23:14 54.54974 -1.35336 1426 ft 96 kts 226°
2026-04-29 23:14 54.54557 -1.36221 1246 ft 94 kts 220°
2026-04-29 23:15 54.54107 -1.37023 1014 ft 89 kts 217°
2026-04-29 23:15 54.53676 -1.37759 851 ft 89 kts 223°
2026-04-29 23:15 54.53270 -1.38581 675 ft 92 kts 219°
2026-04-29 23:15 54.52825 -1.39363 516 ft 92 kts 222°
2026-04-29 23:16 54.52407 -1.40181 402 ft 90 kts 224°
2026-04-29 23:16 54.51991 -1.40946 304 ft 84 kts 219°
2026-04-29 23:16 54.51595 -1.41693 165 ft 84 kts 224°
2026-04-29 23:16 54.51232 -1.42346 126 ft 59 kts 226°
2026-04-29 23:17 54.51055 -1.42738 123 ft 30 kts 276°
2026-04-29 23:17 54.51063 -1.43043 124 ft 12 kts 271°
2026-04-29 23:17 54.51069 -1.43139 122 ft 13 kts 300°
2026-04-29 23:17 54.51137 -1.43124 123 ft 10 kts 43°
2026-04-29 23:18 54.51167 -1.43041 124 ft 7 kts 62°
2026-04-29 23:18 54.51183 -1.42988 124 ft 3 kts 72°
2026-04-29 23:18 54.51169 -1.42962 123 ft 5 kts 135°
2026-04-29 23:18 54.51162 -1.42918 124 ft 3 kts 32°
2026-04-29 23:19 54.51166 -1.42919 124 ft 0 kts 340°